owner,sensor,date,latitude,longitude,vertical_datum,sea_water_temperature,qcFlag
BP,ioos:station:wmo:42865:1,2021-09-01T00:46:00Z,28.1831,-88.4732,16.7,29.2,11111222
BP,ioos:station:wmo:42865:1,2021-09-01T00:56:00Z,28.1831,-88.4732,16.7,29.2,11111222
BP,ioos:station:wmo:42865:1,2021-09-01T01:06:00Z,28.1831,-88.4732,16.5,29.2,11111222
BP,ioos:station:wmo:42865:1,2021-09-01T01:16:00Z,28.1831,-88.4732,16.5,29.2,11111222
BP,ioos:station:wmo:42865:1,2021-09-01T01:26:00Z,28.1831,-88.4732,16.6,29.2,11111222
BP,ioos:station:wmo:42865:1,2021-09-01T01:36:00Z,28.1831,-88.4732,16.5,29.3,11111222
BP,ioos:station:wmo:42865:1,2021-09-01T01:46:00Z,28.1831,-88.4732,16.6,29.3,11111222
BP,ioos:station:wmo:42865:1,2021-09-01T01:56:00Z,28.1831,-88.4732,16.7,29.3,11111222
BP,ioos:station:wmo:42865:1,2021-09-01T02:06:00Z,28.1831,-88.4732,16.6,29.3,11111222
BP,ioos:station:wmo:42865:1,2021-09-01T02:16:00Z,28.1831,-88.4732,16.6,29.3,11111222
BP,ioos:station:wmo:42865:1,2021-09-01T02:26:00Z,28.1831,-88.4732,16.6,29.3,11111222
BP,ioos:station:wmo:42865:1,2021-09-01T02:36:00Z,28.1831,-88.4732,16.6,29.3,11111222
BP,ioos:station:wmo:42865:1,2021-09-01T02:46:00Z,28.1831,-88.4732,16.6,29.3,11111222
BP,ioos:station:wmo:42865:1,2021-09-01T02:56:00Z,28.1831,-88.4732,16.6,29.3,11111222
BP,ioos:station:wmo:42865:1,2021-09-01T03:06:00Z,28.1831,-88.4732,16.6,29.3,11111222
BP,ioos:station:wmo:42865:1,2021-09-01T03:16:00Z,28.1831,-88.4732,16.6,29.3,11111222
BP,ioos:station:wmo:42865:1,2021-09-01T03:26:00Z,28.1831,-88.4732,16.6,29.3,11111222
BP,ioos:station:wmo:42865:1,2021-09-01T03:36:00Z,28.1831,-88.4732,16.6,29.3,11111222
BP,ioos:station:wmo:42865:1,2021-09-01T03:46:00Z,28.1831,-88.4732,16.6,29.3,11111222
BP,ioos:station:wmo:42865:1,2021-09-01T03:56:00Z,28.1831,-88.4732,16.6,29.3,11111222
BP,ioos:station:wmo:42865:1,2021-09-01T04:06:00Z,28.1831,-88.4732,16.6,29.3,11111222
BP,ioos:station:wmo:42865:1,2021-09-01T04:16:00Z,28.1831,-88.4732,16.5,29.3,11111222
BP,ioos:station:wmo:42865:1,2021-09-01T04:26:00Z,28.1831,-88.4732,16.6,29.3,11111222
BP,ioos:station:wmo:42865:1,2021-09-01T04:36:00Z,28.1831,-88.4732,16.6,29.3,11111222
BP,ioos:station:wmo:42865:1,2021-09-01T04:46:00Z,28.1831,-88.4732,16.6,29.3,11111222
BP,ioos:station:wmo:42865:1,2021-09-01T04:56:00Z,28.1831,-88.4732,16.6,29.3,11111222
BP,ioos:station:wmo:42865:1,2021-09-01T05:06:00Z,28.1831,-88.4732,16.6,29.3,11111222
BP,ioos:station:wmo:42865:1,2021-09-01T05:16:00Z,28.1831,-88.4732,16.5,29.3,11111222
BP,ioos:station:wmo:42865:1,2021-09-01T05:26:00Z,28.1831,-88.4732,16.4,29.3,11111222
BP,ioos:station:wmo:42865:1,2021-09-01T05:36:00Z,28.1831,-88.4732,16.4,29.3,11111222
BP,ioos:station:wmo:42865:1,2021-09-01T05:46:00Z,28.1831,-88.4732,16.5,29.3,11111222
BP,ioos:station:wmo:42865:1,2021-09-01T05:56:00Z,28.1831,-88.4732,16.6,29.2,11111222
BP,ioos:station:wmo:42865:1,2021-09-01T06:06:00Z,28.1831,-88.4732,16.6,29.3,11111222
BP,ioos:station:wmo:42865:1,2021-09-01T06:16:00Z,28.1831,-88.4732,16.5,29.3,11111222
BP,ioos:station:wmo:42865:1,2021-09-01T06:26:00Z,28.1831,-88.4732,16.4,29.2,11111222
BP,ioos:station:wmo:42865:1,2021-09-01T06:36:00Z,28.1831,-88.4732,16.4,29.2,11111222
BP,ioos:station:wmo:42865:1,2021-09-01T06:46:00Z,28.1831,-88.4732,16.5,29.2,11111222
BP,ioos:station:wmo:42865:1,2021-09-01T06:56:00Z,28.1831,-88.4732,16.5,29.3,11111222
BP,ioos:station:wmo:42865:1,2021-09-01T07:06:00Z,28.1831,-88.4732,16.7,29.3,11111222
BP,ioos:station:wmo:42865:1,2021-09-01T07:16:00Z,28.1831,-88.4732,16.5,29.2,11111222
BP,ioos:station:wmo:42865:1,2021-09-01T07:26:00Z,28.1831,-88.4732,16.6,29.2,11111222
BP,ioos:station:wmo:42865:1,2021-09-01T07:36:00Z,28.1831,-88.4732,16.6,29.2,11111222
BP,ioos:station:wmo:42865:1,2021-09-01T07:46:00Z,28.1831,-88.4732,16.6,29.2,11111222
BP,ioos:station:wmo:42865:1,2021-09-01T07:56:00Z,28.1831,-88.4732,16.6,29.2,11111222
BP,ioos:station:wmo:42865:1,2021-09-01T08:06:00Z,28.1831,-88.4732,16.6,29.2,11111222
BP,ioos:station:wmo:42865:1,2021-09-01T08:16:00Z,28.1831,-88.4732,16.5,29.2,11111222
BP,ioos:station:wmo:42865:1,2021-09-01T08:26:00Z,28.1831,-88.4732,16.5,29.2,11111222
BP,ioos:station:wmo:42865:1,2021-09-01T08:36:00Z,28.1831,-88.4732,16.6,29.2,11111222
BP,ioos:station:wmo:42865:1,2021-09-01T08:46:00Z,28.1831,-88.4732,16.7,29.2,11111222
BP,ioos:station:wmo:42865:1,2021-09-01T08:56:00Z,28.1831,-88.4732,16.8,29.2,11111222
BP,ioos:station:wmo:42865:1,2021-09-01T09:06:00Z,28.1831,-88.4732,16.8,29.2,11111222
BP,ioos:station:wmo:42865:1,2021-09-01T09:16:00Z,28.1831,-88.4732,16.8,29.2,11111222
BP,ioos:station:wmo:42865:1,2021-09-01T09:26:00Z,28.1831,-88.4732,16.8,29.2,11111222
BP,ioos:station:wmo:42865:1,2021-09-01T09:36:00Z,28.1831,-88.4732,16.7,29.2,11111222
BP,ioos:station:wmo:42865:1,2021-09-01T09:46:00Z,28.1831,-88.4732,16.7,29.2,11111222
BP,ioos:station:wmo:42865:1,2021-09-01T09:56:00Z,28.1831,-88.4732,16.8,29.3,11111222
BP,ioos:station:wmo:42865:1,2021-09-01T10:06:00Z,28.1831,-88.4732,16.8,29.3,11111222
BP,ioos:station:wmo:42865:1,2021-09-01T10:16:00Z,28.1831,-88.4732,16.8,29.3,11111222
BP,ioos:station:wmo:42865:1,2021-09-01T10:26:00Z,28.1831,-88.4732,16.8,29.3,11111222
BP,ioos:station:wmo:42865:1,2021-09-01T10:36:00Z,28.1831,-88.4732,16.8,29.3,11111222
BP,ioos:station:wmo:42865:1,2021-09-01T10:46:00Z,28.1831,-88.4732,16.8,29.3,11111222
BP,ioos:station:wmo:42865:1,2021-09-01T10:56:00Z,28.1831,-88.4732,16.8,29.3,11111222
BP,ioos:station:wmo:42865:1,2021-09-01T11:06:00Z,28.1831,-88.4732,16.7,29.3,11111222
BP,ioos:station:wmo:42865:1,2021-09-01T11:16:00Z,28.1831,-88.4732,16.8,29.3,11111222
BP,ioos:station:wmo:42865:1,2021-09-01T11:26:00Z,28.1831,-88.4732,16.8,29.3,11111222
BP,ioos:station:wmo:42865:1,2021-09-01T11:36:00Z,28.1831,-88.4732,16.8,29.4,11111222
BP,ioos:station:wmo:42865:1,2021-09-01T11:46:00Z,28.1831,-88.4732,16.7,29.4,11111222
BP,ioos:station:wmo:42865:1,2021-09-01T11:56:00Z,28.1831,-88.4732,16.7,29.4,11111222
BP,ioos:station:wmo:42865:1,2021-09-01T12:06:00Z,28.1831,-88.4732,16.7,29.4,11111222
BP,ioos:station:wmo:42865:1,2021-09-01T12:16:00Z,28.1831,-88.4732,16.7,29.4,11111222
BP,ioos:station:wmo:42865:1,2021-09-01T12:26:00Z,28.1831,-88.4732,16.7,29.4,11111222
BP,ioos:station:wmo:42865:1,2021-09-01T12:36:00Z,28.1831,-88.4732,16.7,29.4,11111222
BP,ioos:station:wmo:42865:1,2021-09-01T12:46:00Z,28.1831,-88.4732,16.6,29.4,11111222
BP,ioos:station:wmo:42865:1,2021-09-01T12:56:00Z,28.1831,-88.4732,16.6,29.4,11111222
BP,ioos:station:wmo:42865:1,2021-09-01T13:06:00Z,28.1831,-88.4732,16.7,29.4,11111222
BP,ioos:station:wmo:42865:1,2021-09-01T13:16:00Z,28.1831,-88.4732,16.6,29.4,11111222
BP,ioos:station:wmo:42865:1,2021-09-01T13:26:00Z,28.1831,-88.4732,16.5,29.4,11111222
BP,ioos:station:wmo:42865:1,2021-09-01T13:36:00Z,28.1831,-88.4732,16.5,29.4,11111222
BP,ioos:station:wmo:42865:1,2021-09-01T13:46:00Z,28.1831,-88.4732,16.5,29.5,11111222
BP,ioos:station:wmo:42865:1,2021-09-01T13:56:00Z,28.1831,-88.4732,16.5,29.5,11111222
BP,ioos:station:wmo:42865:1,2021-09-01T14:07:00Z,28.1831,-88.4732,16.5,29.5,11111222
BP,ioos:station:wmo:42865:1,2021-09-01T14:17:00Z,28.1831,-88.4732,16.5,29.5,11111222
BP,ioos:station:wmo:42865:1,2021-09-01T14:27:00Z,28.1831,-88.4732,16.5,29.5,11111222
BP,ioos:station:wmo:42865:1,2021-09-01T14:37:00Z,28.1831,-88.4732,16.6,29.5,11111222
BP,ioos:station:wmo:42865:1,2021-09-01T14:47:00Z,28.1831,-88.4732,16.7,29.5,11111222
BP,ioos:station:wmo:42865:1,2021-09-01T14:57:00Z,28.1831,-88.4732,16.5,29.5,11111222
BP,ioos:station:wmo:42865:1,2021-09-01T15:07:00Z,28.1831,-88.4732,16.5,29.5,11111222
BP,ioos:station:wmo:42865:1,2021-09-01T15:17:00Z,28.1831,-88.4732,16.6,29.5,11111222
BP,ioos:station:wmo:42865:1,2021-09-01T15:27:00Z,28.1831,-88.4732,16.6,29.5,11111222
BP,ioos:station:wmo:42865:1,2021-09-01T15:37:00Z,28.1831,-88.4732,16.6,29.5,11111222
BP,ioos:station:wmo:42865:1,2021-09-01T15:47:00Z,28.1831,-88.4732,16.6,29.4,11111222
BP,ioos:station:wmo:42865:1,2021-09-01T15:57:00Z,28.1831,-88.4732,16.7,29.5,11111222
BP,ioos:station:wmo:42865:1,2021-09-01T16:07:00Z,28.1831,-88.4732,16.6,29.4,11111222
BP,ioos:station:wmo:42865:1,2021-09-01T16:17:00Z,28.1831,-88.4732,16.6,29.4,11111222
BP,ioos:station:wmo:42865:1,2021-09-01T16:27:00Z,28.1831,-88.4732,16.6,29.5,11111222
BP,ioos:station:wmo:42865:1,2021-09-01T16:37:00Z,28.1831,-88.4732,16.6,29.5,11111222
BP,ioos:station:wmo:42865:1,2021-09-01T16:47:00Z,28.1831,-88.4732,16.6,29.4,11111222
BP,ioos:station:wmo:42865:1,2021-09-01T16:57:00Z,28.1831,-88.4732,16.6,29.4,11111222
BP,ioos:station:wmo:42865:1,2021-09-01T17:07:00Z,28.1831,-88.4732,16.6,29.4,11111222
BP,ioos:station:wmo:42865:1,2021-09-01T17:17:00Z,28.1831,-88.4732,16.5,29.4,11111222
BP,ioos:station:wmo:42865:1,2021-09-01T17:27:00Z,28.1831,-88.4732,16.5,29.4,11111222
BP,ioos:station:wmo:42865:1,2021-09-01T17:37:00Z,28.1831,-88.4732,16.5,29.4,11111222
BP,ioos:station:wmo:42865:1,2021-09-01T17:47:00Z,28.1831,-88.4732,16.5,29.4,11111222
BP,ioos:station:wmo:42865:1,2021-09-01T17:57:00Z,28.1831,-88.4732,16.5,29.4,11111222
BP,ioos:station:wmo:42865:1,2021-09-01T18:07:00Z,28.1831,-88.4732,16.5,29.3,11111222
BP,ioos:station:wmo:42865:1,2021-09-01T18:17:00Z,28.1831,-88.4732,16.4,29.3,11111222
BP,ioos:station:wmo:42865:1,2021-09-01T18:27:00Z,28.1831,-88.4732,16.5,29.3,11111222
BP,ioos:station:wmo:42865:1,2021-09-01T18:37:00Z,28.1831,-88.4732,16.4,29.3,11111222
BP,ioos:station:wmo:42865:1,2021-09-01T18:47:00Z,28.1831,-88.4732,16.4,29.3,11111222
BP,ioos:station:wmo:42865:1,2021-09-01T18:57:00Z,28.1831,-88.4732,16.4,29.3,11111222
BP,ioos:station:wmo:42865:1,2021-09-01T19:07:00Z,28.1831,-88.4732,16.4,29.3,11111222
BP,ioos:station:wmo:42865:1,2021-09-01T19:17:00Z,28.1831,-88.4732,16.5,29.3,11111222
BP,ioos:station:wmo:42865:1,2021-09-01T19:27:00Z,28.1831,-88.4732,16.5,29.3,11111222
BP,ioos:station:wmo:42865:1,2021-09-01T19:37:00Z,28.1831,-88.4732,16.5,29.2,11111222
BP,ioos:station:wmo:42865:1,2021-09-01T19:47:00Z,28.1831,-88.4732,16.5,29.2,11111222
BP,ioos:station:wmo:42865:1,2021-09-01T19:57:00Z,28.1831,-88.4732,16.5,29.2,11111222
BP,ioos:station:wmo:42865:1,2021-09-01T20:07:00Z,28.1831,-88.4732,16.5,29.2,11111222
BP,ioos:station:wmo:42865:1,2021-09-01T20:17:00Z,28.1831,-88.4732,16.5,29.2,11111222
BP,ioos:station:wmo:42865:1,2021-09-01T20:27:00Z,28.1831,-88.4732,16.5,29.2,11111222
BP,ioos:station:wmo:42865:1,2021-09-01T20:37:00Z,28.1831,-88.4732,16.5,29.2,11111222
BP,ioos:station:wmo:42865:1,2021-09-01T20:47:00Z,28.1831,-88.4732,16.5,29.2,11111222
BP,ioos:station:wmo:42865:1,2021-09-01T20:57:00Z,28.1831,-88.4732,16.5,29.2,11111222
BP,ioos:station:wmo:42865:1,2021-09-01T21:07:00Z,28.1831,-88.4732,16.4,29.1,11111222
BP,ioos:station:wmo:42865:1,2021-09-01T21:17:00Z,28.1831,-88.4732,16.4,29.1,11111222
BP,ioos:station:wmo:42865:1,2021-09-01T21:27:00Z,28.1831,-88.4732,16.4,29.1,11111222
BP,ioos:station:wmo:42865:1,2021-09-01T21:37:00Z,28.1831,-88.4732,16.5,29.1,11111222
BP,ioos:station:wmo:42865:1,2021-09-01T21:47:00Z,28.1831,-88.4732,16.5,29.1,11111222
BP,ioos:station:wmo:42865:1,2021-09-01T21:57:00Z,28.1831,-88.4732,16.5,29.1,11111222
BP,ioos:station:wmo:42865:1,2021-09-01T22:07:00Z,28.1831,-88.4732,16.5,29.1,11111222
BP,ioos:station:wmo:42865:1,2021-09-01T22:17:00Z,28.1831,-88.4732,16.3,29.1,11111222
BP,ioos:station:wmo:42865:1,2021-09-01T22:27:00Z,28.1831,-88.4732,16.4,29.1,11111222
BP,ioos:station:wmo:42865:1,2021-09-01T22:37:00Z,28.1831,-88.4732,16.4,29.1,11111222
BP,ioos:station:wmo:42865:1,2021-09-01T22:47:00Z,28.1831,-88.4732,16.4,29.1,11111222
BP,ioos:station:wmo:42865:1,2021-09-01T22:57:00Z,28.1831,-88.4732,16.4,29.1,11111222
BP,ioos:station:wmo:42865:1,2021-09-01T23:07:00Z,28.1831,-88.4732,16.3,29.1,11111222
BP,ioos:station:wmo:42865:1,2021-09-01T23:17:00Z,28.1831,-88.4732,16.4,29.1,11111222
BP,ioos:station:wmo:42865:1,2021-09-01T23:27:00Z,28.1831,-88.4732,16.6,29.1,11111222
BP,ioos:station:wmo:42865:1,2021-09-01T23:37:00Z,28.1831,-88.4732,16.8,29.1,11111222
BP,ioos:station:wmo:42865:1,2021-09-01T23:47:00Z,28.1831,-88.4732,16.8,29.2,11111222
BP,ioos:station:wmo:42865:1,2021-09-01T23:57:00Z,28.1831,-88.4732,16.8,29.2,11111222
BP,ioos:station:wmo:42865:1,2021-09-02T00:07:00Z,28.1831,-88.4732,16.8,29.2,11111222
BP,ioos:station:wmo:42865:1,2021-09-02T00:17:00Z,28.1831,-88.4732,16.8,29.2,11111222
BP,ioos:station:wmo:42865:1,2021-09-02T00:27:00Z,28.1831,-88.4732,16.8,29.2,11111222
BP,ioos:station:wmo:42865:1,2021-09-02T00:37:00Z,28.1831,-88.4732,16.4,29.2,11111222
BP,ioos:station:wmo:42865:1,2021-09-02T00:47:00Z,28.1831,-88.4732,16.5,29.2,11111222
BP,ioos:station:wmo:42865:1,2021-09-02T00:57:00Z,28.1831,-88.4732,16.6,29.2,11111222
BP,ioos:station:wmo:42865:1,2021-09-02T01:07:00Z,28.1831,-88.4732,16.9,29.2,11111222
BP,ioos:station:wmo:42865:1,2021-09-02T01:17:00Z,28.1831,-88.4732,16.9,29.2,11111222
BP,ioos:station:wmo:42865:1,2021-09-02T01:27:00Z,28.1831,-88.4732,16.9,29.2,11111222
BP,ioos:station:wmo:42865:1,2021-09-02T01:37:00Z,28.1831,-88.4732,16.9,29.2,11111222
BP,ioos:station:wmo:42865:1,2021-09-02T01:47:00Z,28.1831,-88.4732,16.9,29.2,11111222
BP,ioos:station:wmo:42865:1,2021-09-02T01:57:00Z,28.1831,-88.4732,16.9,29.2,11111222
BP,ioos:station:wmo:42865:1,2021-09-02T02:07:00Z,28.1831,-88.4732,16.9,29.2,11111222
BP,ioos:station:wmo:42865:1,2021-09-02T02:17:00Z,28.1831,-88.4732,16.9,29.2,11111222
BP,ioos:station:wmo:42865:1,2021-09-02T02:27:00Z,28.1831,-88.4732,16.9,29.2,11111222
BP,ioos:station:wmo:42865:1,2021-09-02T02:37:00Z,28.1831,-88.4732,16.9,29.2,11111222
BP,ioos:station:wmo:42865:1,2021-09-02T02:47:00Z,28.1831,-88.4732,16.9,29.2,11111222
BP,ioos:station:wmo:42865:1,2021-09-02T02:57:00Z,28.1831,-88.4732,16.9,29.2,11111222
BP,ioos:station:wmo:42865:1,2021-09-02T03:07:00Z,28.1831,-88.4732,16.9,29.2,11111222
BP,ioos:station:wmo:42865:1,2021-09-02T03:17:00Z,28.1831,-88.4732,16.7,29.2,11111222
BP,ioos:station:wmo:42865:1,2021-09-02T03:27:00Z,28.1831,-88.4732,16.8,29.2,11111222
BP,ioos:station:wmo:42865:1,2021-09-02T03:37:00Z,28.1831,-88.4732,16.8,29.2,11111222
BP,ioos:station:wmo:42865:1,2021-09-02T03:47:00Z,28.1831,-88.4732,16.8,29.2,11111222
BP,ioos:station:wmo:42865:1,2021-09-02T03:57:00Z,28.1831,-88.4732,16.9,29.3,11111222
BP,ioos:station:wmo:42865:1,2021-09-02T04:07:00Z,28.1831,-88.4732,16.9,29.4,11111222
BP,ioos:station:wmo:42865:1,2021-09-02T04:17:00Z,28.1831,-88.4732,16.8,29.4,11111222
BP,ioos:station:wmo:42865:1,2021-09-02T04:27:00Z,28.1831,-88.4732,16.7,29.3,11111222
BP,ioos:station:wmo:42865:1,2021-09-02T04:37:00Z,28.1831,-88.4732,16.7,29.3,11111222
BP,ioos:station:wmo:42865:1,2021-09-02T04:47:00Z,28.1831,-88.4732,16.6,29.2,11111222
BP,ioos:station:wmo:42865:1,2021-09-02T04:57:00Z,28.1831,-88.4732,16.6,29.2,11111222
BP,ioos:station:wmo:42865:1,2021-09-02T05:08:00Z,28.1831,-88.4732,16.6,29.2,11111222
BP,ioos:station:wmo:42865:1,2021-09-02T05:18:00Z,28.1831,-88.4732,16.6,29.2,11111222
BP,ioos:station:wmo:42865:1,2021-09-02T05:28:00Z,28.1831,-88.4732,16.6,29.1,11111222
BP,ioos:station:wmo:42865:1,2021-09-02T05:38:00Z,28.1831,-88.4732,16.5,29.1,11111222
BP,ioos:station:wmo:42865:1,2021-09-02T05:48:00Z,28.1831,-88.4732,16.6,29.1,11111222
BP,ioos:station:wmo:42865:1,2021-09-02T05:58:00Z,28.1831,-88.4732,16.6,29.1,11111222
BP,ioos:station:wmo:42865:1,2021-09-02T06:08:00Z,28.1831,-88.4732,16.7,29.1,11111222
BP,ioos:station:wmo:42865:1,2021-09-02T06:18:00Z,28.1831,-88.4732,16.7,29.1,11111222
BP,ioos:station:wmo:42865:1,2021-09-02T06:28:00Z,28.1831,-88.4732,16.7,29.1,11111222
BP,ioos:station:wmo:42865:1,2021-09-02T06:38:00Z,28.1831,-88.4732,16.7,29.1,11111222
BP,ioos:station:wmo:42865:1,2021-09-02T06:48:00Z,28.1831,-88.4732,16.7,29.1,11111222
BP,ioos:station:wmo:42865:1,2021-09-02T06:58:00Z,28.1831,-88.4732,16.7,29.1,11111222
BP,ioos:station:wmo:42865:1,2021-09-02T07:08:00Z,28.1831,-88.4732,16.7,29.2,11111222
BP,ioos:station:wmo:42865:1,2021-09-02T07:18:00Z,28.1831,-88.4732,16.5,29.2,11111222
BP,ioos:station:wmo:42865:1,2021-09-02T07:28:00Z,28.1831,-88.4732,16.4,29.2,11111222
BP,ioos:station:wmo:42865:1,2021-09-02T07:38:00Z,28.1831,-88.4732,16.5,29.2,11111222
BP,ioos:station:wmo:42865:1,2021-09-02T07:48:00Z,28.1831,-88.4732,16.5,29.2,11111222
BP,ioos:station:wmo:42865:1,2021-09-02T07:58:00Z,28.1831,-88.4732,16.6,29.2,11111222
BP,ioos:station:wmo:42865:1,2021-09-02T08:08:00Z,28.1831,-88.4732,16.6,29.2,11111222
BP,ioos:station:wmo:42865:1,2021-09-02T08:18:00Z,28.1831,-88.4732,16.6,29.2,11111222
BP,ioos:station:wmo:42865:1,2021-09-02T08:28:00Z,28.1831,-88.4732,16.6,29.2,11111222
BP,ioos:station:wmo:42865:1,2021-09-02T08:38:00Z,28.1831,-88.4732,16.6,29.2,11111222
BP,ioos:station:wmo:42865:1,2021-09-02T08:48:00Z,28.1831,-88.4732,16.6,29.2,11111222
BP,ioos:station:wmo:42865:1,2021-09-02T08:58:00Z,28.1831,-88.4732,16.6,29.2,11111222
BP,ioos:station:wmo:42865:1,2021-09-02T09:08:00Z,28.1831,-88.4732,16.6,29.2,11111222
BP,ioos:station:wmo:42865:1,2021-09-02T09:18:00Z,28.1831,-88.4732,16.6,29.2,11111222
BP,ioos:station:wmo:42865:1,2021-09-02T09:28:00Z,28.1831,-88.4732,16.6,29.1,11111222
BP,ioos:station:wmo:42865:1,2021-09-02T09:38:00Z,28.1831,-88.4732,16.7,29.1,11111222
BP,ioos:station:wmo:42865:1,2021-09-02T09:48:00Z,28.1831,-88.4732,16.7,29.2,11111222
BP,ioos:station:wmo:42865:1,2021-09-02T09:58:00Z,28.1831,-88.4732,16.6,29.2,11111222
BP,ioos:station:wmo:42865:1,2021-09-02T10:08:00Z,28.1831,-88.4732,16.6,29.2,11111222
BP,ioos:station:wmo:42865:1,2021-09-02T10:18:00Z,28.1831,-88.4732,16.6,29.2,11111222
BP,ioos:station:wmo:42865:1,2021-09-02T10:28:00Z,28.1831,-88.4732,16.6,29.2,11111222
BP,ioos:station:wmo:42865:1,2021-09-02T10:38:00Z,28.1831,-88.4732,16.5,29.2,11111222
BP,ioos:station:wmo:42865:1,2021-09-02T10:48:00Z,28.1831,-88.4732,16.5,29.2,11111222
BP,ioos:station:wmo:42865:1,2021-09-02T10:58:00Z,28.1831,-88.4732,16.5,29.2,11111222
BP,ioos:station:wmo:42865:1,2021-09-02T11:08:00Z,28.1831,-88.4732,16.6,29.2,11111222
BP,ioos:station:wmo:42865:1,2021-09-02T11:18:00Z,28.1831,-88.4732,16.6,29.2,11111222
BP,ioos:station:wmo:42865:1,2021-09-02T11:28:00Z,28.1831,-88.4732,16.5,29.2,11111222
BP,ioos:station:wmo:42865:1,2021-09-02T11:38:00Z,28.1831,-88.4732,16.5,29.2,11111222
BP,ioos:station:wmo:42865:1,2021-09-02T11:48:00Z,28.1831,-88.4732,16.6,29.2,11111222
BP,ioos:station:wmo:42865:1,2021-09-02T11:58:00Z,28.1831,-88.4732,16.6,29.2,11111222
BP,ioos:station:wmo:42865:1,2021-09-02T12:08:00Z,28.1831,-88.4732,16.6,29.2,11111222
BP,ioos:station:wmo:42865:1,2021-09-02T12:18:00Z,28.1831,-88.4732,16.6,29.2,11111222
BP,ioos:station:wmo:42865:1,2021-09-02T12:28:00Z,28.1831,-88.4732,16.6,29.2,11111222
BP,ioos:station:wmo:42865:1,2021-09-02T12:38:00Z,28.1831,-88.4732,16.6,29.2,11111222
BP,ioos:station:wmo:42865:1,2021-09-02T12:48:00Z,28.1831,-88.4732,16.5,29.2,11111222
BP,ioos:station:wmo:42865:1,2021-09-02T12:58:00Z,28.1831,-88.4732,16.5,29.2,11111222
BP,ioos:station:wmo:42865:1,2021-09-02T13:08:00Z,28.1831,-88.4732,16.5,29.2,11111222
BP,ioos:station:wmo:42865:1,2021-09-02T13:18:00Z,28.1831,-88.4732,16.5,29.2,11111222
BP,ioos:station:wmo:42865:1,2021-09-02T13:28:00Z,28.1831,-88.4732,16.7,29.2,11111222
BP,ioos:station:wmo:42865:1,2021-09-02T13:38:00Z,28.1831,-88.4732,16.7,29.2,11111222
BP,ioos:station:wmo:42865:1,2021-09-02T13:48:00Z,28.1831,-88.4732,16.8,29.2,11111222
BP,ioos:station:wmo:42865:1,2021-09-02T13:58:00Z,28.1831,-88.4732,16.7,29.2,11111222
BP,ioos:station:wmo:42865:1,2021-09-02T14:08:00Z,28.1831,-88.4732,16.6,29.2,11111222
BP,ioos:station:wmo:42865:1,2021-09-02T14:18:00Z,28.1831,-88.4732,16.6,29.2,11111222
BP,ioos:station:wmo:42865:1,2021-09-02T14:28:00Z,28.1831,-88.4732,16.7,29.3,11111222
BP,ioos:station:wmo:42865:1,2021-09-02T14:38:00Z,28.1831,-88.4732,16.7,29.3,11111222
BP,ioos:station:wmo:42865:1,2021-09-02T14:48:00Z,28.1831,-88.4732,16.7,29.3,11111222
BP,ioos:station:wmo:42865:1,2021-09-02T14:58:00Z,28.1831,-88.4732,16.7,29.3,11111222
BP,ioos:station:wmo:42865:1,2021-09-02T15:08:00Z,28.1831,-88.4732,16.7,29.3,11111222
BP,ioos:station:wmo:42865:1,2021-09-02T15:18:00Z,28.1831,-88.4732,16.7,29.4,11111222
BP,ioos:station:wmo:42865:1,2021-09-02T15:28:00Z,28.1831,-88.4732,16.6,29.4,11111222
BP,ioos:station:wmo:42865:1,2021-09-02T15:38:00Z,28.1831,-88.4732,16.5,29.5,11111222
BP,ioos:station:wmo:42865:1,2021-09-02T15:48:00Z,28.1831,-88.4732,16.5,29.5,11111222
BP,ioos:station:wmo:42865:1,2021-09-02T15:58:00Z,28.1831,-88.4732,16.5,29.5,11111222
BP,ioos:station:wmo:42865:1,2021-09-02T16:08:00Z,28.1831,-88.4732,16.4,29.4,11111222
BP,ioos:station:wmo:42865:1,2021-09-02T16:18:00Z,28.1831,-88.4732,16.4,29.4,11111222
BP,ioos:station:wmo:42865:1,2021-09-02T16:28:00Z,28.1831,-88.4732,16.4,29.4,11111222
BP,ioos:station:wmo:42865:1,2021-09-02T16:38:00Z,28.1831,-88.4732,16.4,29.4,11111222
BP,ioos:station:wmo:42865:1,2021-09-02T16:48:00Z,28.1831,-88.4732,16.4,29.4,11111222
BP,ioos:station:wmo:42865:1,2021-09-02T16:58:00Z,28.1831,-88.4732,16.4,29.5,11111222
BP,ioos:station:wmo:42865:1,2021-09-02T17:08:00Z,28.1831,-88.4732,16.4,29.5,11111222
BP,ioos:station:wmo:42865:1,2021-09-02T17:18:00Z,28.1831,-88.4732,16.4,29.5,11111222
BP,ioos:station:wmo:42865:1,2021-09-02T17:28:00Z,28.1831,-88.4732,16.4,29.5,11111222
BP,ioos:station:wmo:42865:1,2021-09-02T17:38:00Z,28.1831,-88.4732,16.4,29.5,11111222
BP,ioos:station:wmo:42865:1,2021-09-02T17:48:00Z,28.1831,-88.4732,16.4,29.5,11111222
BP,ioos:station:wmo:42865:1,2021-09-02T17:58:00Z,28.1831,-88.4732,16.4,29.5,11111222
BP,ioos:station:wmo:42865:1,2021-09-02T18:08:00Z,28.1831,-88.4732,16.4,29.5,11111222
BP,ioos:station:wmo:42865:1,2021-09-02T18:18:00Z,28.1831,-88.4732,16.3,29.5,11111222
BP,ioos:station:wmo:42865:1,2021-09-02T18:28:00Z,28.1831,-88.4732,16.4,29.5,11111222
BP,ioos:station:wmo:42865:1,2021-09-02T18:38:00Z,28.1831,-88.4732,16.4,29.5,11111222
BP,ioos:station:wmo:42865:1,2021-09-02T18:48:00Z,28.1831,-88.4732,16.4,29.5,11111222
BP,ioos:station:wmo:42865:1,2021-09-02T18:58:00Z,28.1831,-88.4732,16.4,29.5,11111222
BP,ioos:station:wmo:42865:1,2021-09-02T19:08:00Z,28.1831,-88.4732,16.4,29.5,11111222
BP,ioos:station:wmo:42865:1,2021-09-02T19:18:00Z,28.1831,-88.4732,16.3,29.5,11111222
BP,ioos:station:wmo:42865:1,2021-09-02T19:28:00Z,28.1831,-88.4732,16.3,29.5,11111222
BP,ioos:station:wmo:42865:1,2021-09-02T19:38:00Z,28.1831,-88.4732,16.3,29.5,11111222
BP,ioos:station:wmo:42865:1,2021-09-02T19:48:00Z,28.1831,-88.4732,16.3,29.5,11111222
BP,ioos:station:wmo:42865:1,2021-09-02T19:59:00Z,28.1831,-88.4732,16.4,29.5,11111222
BP,ioos:station:wmo:42865:1,2021-09-02T20:09:00Z,28.1831,-88.4732,16.3,29.5,11111222
BP,ioos:station:wmo:42865:1,2021-09-02T20:19:00Z,28.1831,-88.4732,16.3,29.5,11111222
BP,ioos:station:wmo:42865:1,2021-09-02T20:29:00Z,28.1831,-88.4732,16.3,29.5,11111222
BP,ioos:station:wmo:42865:1,2021-09-02T20:39:00Z,28.1831,-88.4732,16.2,29.5,11111222
BP,ioos:station:wmo:42865:1,2021-09-02T20:49:00Z,28.1831,-88.4732,16.3,29.5,11111222
BP,ioos:station:wmo:42865:1,2021-09-02T20:59:00Z,28.1831,-88.4732,16.3,29.5,11111222
BP,ioos:station:wmo:42865:1,2021-09-02T21:09:00Z,28.1831,-88.4732,16.3,29.5,11111222
BP,ioos:station:wmo:42865:1,2021-09-02T21:19:00Z,28.1831,-88.4732,16.3,29.5,11111222
BP,ioos:station:wmo:42865:1,2021-09-02T21:29:00Z,28.1831,-88.4732,16.3,29.5,11111222
BP,ioos:station:wmo:42865:1,2021-09-02T21:39:00Z,28.1831,-88.4732,16.3,29.5,11111222
BP,ioos:station:wmo:42865:1,2021-09-02T21:49:00Z,28.1831,-88.4732,16.3,29.5,11111222
BP,ioos:station:wmo:42865:1,2021-09-02T21:59:00Z,28.1831,-88.4732,16.3,29.5,11111222
BP,ioos:station:wmo:42865:1,2021-09-02T22:09:00Z,28.1831,-88.4732,16.4,29.5,11111222
BP,ioos:station:wmo:42865:1,2021-09-02T22:19:00Z,28.1831,-88.4732,16.4,29.5,11111222
BP,ioos:station:wmo:42865:1,2021-09-02T22:29:00Z,28.1831,-88.4732,16.3,29.5,11111222
BP,ioos:station:wmo:42865:1,2021-09-02T22:39:00Z,28.1831,-88.4732,16.4,29.5,11111222
BP,ioos:station:wmo:42865:1,2021-09-02T22:49:00Z,28.1831,-88.4732,16.4,29.5,11111222
BP,ioos:station:wmo:42865:1,2021-09-02T22:59:00Z,28.1831,-88.4732,16.4,29.5,11111222